Погода в Берлингтоне

США     44°28′33″N   73°12′21″W
темп.,
°C
ветер,
м/с
пор.,
м/с
влажн.,
%
обл.,
%
осадки,
мм/ч
давл.,
гПа
погр.,
м
11 апреля, вс
вс1123:00+11ююз1191100 0.4 100610
02:00+11ююв129196 0.7 100611
05:00+10ссз2296100 0.3 100512
08:00+8ссз3499100 0.4 100663
11:00+9ссз349586 0.0 1006135
14:00+10зсз3491100 0.1 1003108
17:00+12юв3684100 0.8 1002198
20:00+11ююв5779100 0.9 1005122
12 апреля, пн
пн1223:00+9юв4582100 0.0 100693
02:00+8ююв4583100 0.0 1007101
05:00+8юв3479100 0.0 100896
08:00+8юв2376100 0.0 100985
11:00+10ююз026649 0.0 1010417
14:00+10сз2270100 0.0 1010353
17:00+9ююз1179100 0.0 101039
20:00+9ююз3481100 0.2 1012103
13 апреля, вт
вт1323:00+8ю3481100 0.2 1014119
02:00+8юв118098 0.3 101417
05:00+7св118138 0.0 101516
08:00+7ссз337752 0.0 1017101
11:00+8сз337246 0.0 1017270
14:00+8сз337830 0.0 1017383
17:00+9з127338 0.0 1015176
20:00+9юз2274100 0.0 101610
14 апреля, ср
ср1423:00+8зсз127794 0.0 101611
02:00+7юв1182100 0.0 101611
05:00+8ю2284100 0.0 101612
08:00+8юв118699 0.0 101619
11:00+9ссз118177 0.0 1015176
14:00+8ссз548563 0.1 1014401
17:00+9ссз347828 0.1 1012333
20:00+8зсз118441 0.3 101210
15 апреля, чт
чт1523:00+8юз1189100 0.3 101111
02:00+8ю22905 0.4 101111
05:00+7ююв22906 0.0 101013
08:00+8юв248315 0.0 1011128
11:00+11юв355999 0.0 1010406
14:00+13ююв465064 0.0 1009692
17:00+12ююв245192 0.0 1008367
20:00+10юв2359100 0.0 100928